Simultaneous Nadir Overpasses (SNOs) Predictions

Prediction of SNOs between NOAA-19 and TERRA Satellite Orbit:

Table of predicted SNOs for the next 14.0 days since TLE Epoch: 11/2/2024
Index Date (NOAA-19) Time (NOAA-19) Lat,Lon (NOAA-19) SZA (NOAA-19 ) Date (TERRA) Time (TERRA) Lat,Lon (TERRA) SZA (TERRA ) Distance(km) Time Diff (sec)
1 11/02/2024 14:37:35 54.90, -63.99 71.90 11/02/2024 14:38:48 54.85, -63.63 71.72 24.25 73
2 11/02/2024 15:25:45 -64.23, 110.09 100.10 11/02/2024 15:25:29 -64.24, 110.12 100.09 1.83 16
3 11/04/2024 18:24:43 -63.10, 64.43 100.45 11/04/2024 18:24:48 -63.08, 64.39 100.46 2.29 5
4 11/06/2024 21:23:54 -61.21, 18.25 101.47 11/06/2024 21:24:18 -61.20, 18.23 101.49 1.20 24
5 11/06/2024 22:12:59 67.52,-168.29 84.12 11/06/2024 22:11:46 67.54,-168.59 84.19 13.07 73
6 11/09/2024 00:23:09 -59.06, -27.95 102.71 11/09/2024 00:23:51 -59.05, -27.95 102.75 0.54 42
7 11/09/2024 01:12:49 63.54, 142.87 81.19 11/09/2024 01:11:52 63.55, 142.89 81.22 1.23 57
8 11/11/2024 03:22:25 -56.81, -74.02 104.05 11/11/2024 03:23:24 -56.81, -74.02 104.09 0.35 59
9 11/11/2024 04:11:56 61.84, 96.80 80.29 11/11/2024 04:11:16 61.85, 96.83 80.32 1.67 40
10 11/13/2024 06:22:35 -51.47,-121.54 107.97 11/13/2024 06:23:48 -51.47,-121.40 108.08 10.29 73
11 11/13/2024 07:11:05 59.99, 50.77 79.26 11/13/2024 07:10:41 60.00, 50.80 79.27 2.18 24
12 11/15/2024 10:10:02 58.77, 5.31 78.75 11/15/2024 10:09:54 58.76, 5.27 78.75 2.23 8



Historial Predications of SNOs between NOAA-19 and TERRA
